| time (UTC) | temp F | wind direction | speed MPH | gust MPH | rain 1hr in | rain 24hr in | rain mn in | humidity % | barometer mb |
| 20260504150905 | 39 | 0 | 0.0 | 0.0 | 0.00 | 0.00 | 0.00 | 75 | 1014.1 |
| 20260504140905 | 33 | 0 | 0.0 | 0.0 | 0.00 | 0.00 | 0.00 | 75 | 1014.1 |
| 20260504081809 | 32 | 0 | 0.0 | 0.0 | 0.00 | 0.00 | 0.00 | 70 | 1015.1 |
| 20260504080909 | 32 | 0 | 0.0 | 0.0 | 0.00 | 0.00 | 0.00 | 71 | 1015.1 |
| 20260504050008 | 39 | 0 | 0.0 | 0.0 | 0.00 | 0.00 | 0.00 | 63 | 1016.2 |
| 20260504045408 | 39 | 0 | 0.0 | 0.0 | 0.00 | 0.00 | 0.00 | 62 | 1016.2 |
| 20260504044509 | 40 | 0 | 0.0 | 0.0 | 0.00 | 0.00 | 0.00 | 59 | 1016.2 |
| 20260504043630 | 40 | 237 | 0.0 | 2.0 | 0.00 | 0.00 | 0.00 | 60 | 1016.2 |
| 20260504042708 | 40 | 0 | 0.0 | 0.0 | 0.00 | 0.00 | 0.00 | 61 | 1016.2 |
| 20260504041808 | 41 | 0 | 0.0 | 0.0 | 0.00 | 0.00 | 0.00 | 60 | 1016.2 |
| 20260504040908 | 42 | 0 | 0.0 | 0.0 | 0.00 | 0.00 | 0.00 | 60 | 1016.2 |
| 20260504040008 | 42 | 0 | 0.0 | 0.0 | 0.00 | 0.00 | 0.00 | 59 | 1016.2 |
| 20260504035408 | 42 | 0 | 0.0 | 0.0 | 0.00 | 0.00 | 0.00 | 57 | 1016.2 |
| 20260504034508 | 43 | 197 | 0.0 | 2.0 | 0.00 | 0.00 | 0.00 | 58 | 1016.2 |
| 20260504033608 | 43 | 0 | 0.0 | 0.0 | 0.00 | 0.00 | 0.00 | 56 | 1016.2 |
| 20260504032708 | 44 | 197 | 0.0 | 1.0 | 0.00 | 0.00 | 0.00 | 56 | 1016.2 |
| 20260504031829 | 44 | 196 | 1.0 | 3.0 | 0.00 | 0.00 | 0.00 | 53 | 1016.2 |
| 20260504030908 | 44 | 0 | 0.0 | 0.0 | 0.00 | 0.00 | 0.00 | 54 | 1016.2 |
| 20260504030008 | 44 | 0 | 0.0 | 0.0 | 0.00 | 0.00 | 0.00 | 52 | 1016.2 |
| 20260504025408 | 45 | 195 | 0.0 | 3.0 | 0.00 | 0.00 | 0.00 | 53 | 1016.2 |
| 20260504024508 | 45 | 0 | 0.0 | 0.0 | 0.00 | 0.00 | 0.00 | 54 | 1016.2 |
| 20260504023608 | 46 | 0 | 0.0 | 0.0 | 0.00 | 0.00 | 0.00 | 55 | 1016.2 |
| 20260504022707 | 46 | 0 | 0.0 | 0.0 | 0.00 | 0.00 | 0.00 | 52 | 1016.2 |
| 20260504021808 | 47 | 0 | 0.0 | 0.0 | 0.00 | 0.00 | 0.00 | 48 | 1015.9 |
| 20260504020907 | 48 | 191 | 0.0 | 1.0 | 0.00 | 0.00 | 0.00 | 47 | 1015.9 |
| 20260504020008 | 50 | 191 | 0.0 | 1.0 | 0.00 | 0.00 | 0.00 | 44 | 1015.9 |
| 20260504015407 | 50 | 312 | 1.0 | 6.0 | 0.00 | 0.00 | 0.00 | 41 | 1015.9 |
| 20260504014507 | 50 | 242 | 2.0 | 8.0 | 0.00 | 0.00 | 0.00 | 40 | 1015.9 |
| 20260504013608 | 51 | 314 | 3.0 | 12.0 | 0.00 | 0.00 | 0.00 | 42 | 1015.9 |
| 20260504012707 | 51 | 341 | 2.0 | 6.0 | 0.00 | 0.00 | 0.00 | 42 | 1015.9 |
| 20260504011813 | 52 | 234 | 1.0 | 4.0 | 0.00 | 0.00 | 0.00 | 39 | 1015.4 |
| 20260504010913 | 52 | 213 | 2.0 | 5.0 | 0.00 | 0.00 | 0.00 | 37 | 1015.4 |
| 20260504010013 | 52 | 279 | 2.0 | 4.0 | 0.00 | 0.00 | 0.00 | 38 | 1015.4 |
| 20260504005434 | 52 | 283 | 2.0 | 4.0 | 0.00 | 0.00 | 0.00 | 37 | 1015.4 |
| 20260504004512 | 53 | 351 | 1.0 | 3.0 | 0.00 | 0.00 | 0.00 | 38 | 1015.4 |
| 20260504003612 | 53 | 330 | 1.0 | 9.0 | 0.00 | 0.00 | 0.00 | 35 | 1015.4 |
| 20260504002712 | 53 | 269 | 2.0 | 7.0 | 0.00 | 0.00 | 0.00 | 35 | 1015.4 |
| 20260504001833 | 53 | 325 | 2.0 | 5.0 | 0.00 | 0.00 | 0.00 | 37 | 1015.6 |
| 20260504000912 | 54 | 257 | 2.0 | 8.0 | 0.00 | 0.00 | 0.00 | 35 | 1015.6 |
| 20260504000012 | 55 | 234 | 2.0 | 11.0 | 0.00 | 0.00 | 0.00 | 37 | 1015.6 |
| 20260503235412 | 56 | 240 | 3.0 | 11.0 | 0.00 | 0.00 | 0.00 | 32 | 1015.6 |
| 20260503234533 | 56 | 255 | 2.0 | 4.0 | 0.00 | 0.00 | 0.00 | 29 | 1015.6 |
| 20260503233612 | 56 | 267 | 2.0 | 8.0 | 0.00 | 0.00 | 0.00 | 28 | 1015.6 |
| 20260503232712 | 56 | 272 | 2.0 | 8.0 | 0.00 | 0.00 | 0.00 | 30 | 1015.6 |
| 20260503231812 | 56 | 264 | 3.0 | 9.0 | 0.00 | 0.00 | 0.00 | 30 | 1015.1 |
| 20260503230913 | 56 | 252 | 3.0 | 7.0 | 0.00 | 0.00 | 0.00 | 31 | 1015.1 |
| 20260503230012 | 56 | 266 | 5.0 | 13.0 | 0.00 | 0.00 | 0.00 | 32 | 1015.1 |
| 20260503225412 | 57 | 264 | 3.0 | 12.0 | 0.00 | 0.00 | 0.00 | 29 | 1015.1 |
| 20260503224512 | 58 | 218 | 2.0 | 5.0 | 0.00 | 0.00 | 0.00 | 28 | 1015.1 |
| 20260503223612 | 59 | 332 | 2.0 | 11.0 | 0.00 | 0.00 | 0.00 | 26 | 1015.1 |
| 20260503222712 | 59 | 243 | 1.0 | 4.0 | 0.00 | 0.00 | 0.00 | 24 | 1015.1 |
| 20260503221812 | 60 | 96 | 2.0 | 6.0 | 0.00 | 0.00 | 0.00 | 25 | 1015.8 |
| 20260503220912 | 60 | 234 | 3.0 | 9.0 | 0.00 | 0.00 | 0.00 | 27 | 1015.8 |
| 20260503220012 | 60 | 282 | 3.0 | 9.0 | 0.00 | 0.00 | 0.00 | 26 | 1015.8 |
| 20260503215412 | 60 | 352 | 3.0 | 8.0 | 0.00 | 0.00 | 0.00 | 27 | 1015.8 |
| 20260503214533 | 62 | 79 | 3.0 | 10.0 | 0.00 | 0.00 | 0.00 | 26 | 1015.8 |
| 20260503213612 | 62 | 21 | 4.0 | 10.0 | 0.00 | 0.00 | 0.00 | 25 | 1015.8 |
| 20260503212733 | 62 | 99 | 4.0 | 11.0 | 0.00 | 0.00 | 0.00 | 25 | 1015.8 |
| 20260503211834 | 63 | 58 | 3.0 | 10.0 | 0.00 | 0.00 | 0.00 | 28 | 1016.8 |
| 20260503210911 | 62 | 28 | 4.0 | 13.0 | 0.00 | 0.00 | 0.00 | 25 | 1016.8 |
| 20260503210012 | 63 | 80 | 5.0 | 13.0 | 0.00 | 0.00 | 0.00 | 25 | 1016.8 |
| 20260503205412 | 63 | 79 | 4.0 | 10.0 | 0.00 | 0.00 | 0.00 | 23 | 1016.8 |
| 20260503204511 | 63 | 75 | 3.0 | 9.0 | 0.00 | 0.00 | 0.00 | 25 | 1016.8 |
| 20260503203611 | 60 | 42 | 4.0 | 10.0 | 0.00 | 0.00 | 0.00 | 24 | 1016.8 |
| 20260503202711 | 59 | 53 | 2.0 | 8.0 | 0.00 | 0.00 | 0.00 | 25 | 1016.8 |
| 20260503201811 | 58 | 66 | 4.0 | 13.0 | 0.00 | 0.00 | 0.00 | 25 | 1017.7 |
| 20260503200912 | 60 | 85 | 1.0 | 7.0 | 0.00 | 0.00 | 0.00 | 26 | 1017.7 |
| 20260503200011 | 58 | 318 | 2.0 | 7.0 | 0.00 | 0.00 | 0.00 | 28 | 1017.7 |
| 20260503195412 | 57 | 295 | 1.0 | 3.0 | 0.00 | 0.00 | 0.00 | 26 | 1017.7 |
| 20260503194511 | 59 | 304 | 3.0 | 9.0 | 0.00 | 0.00 | 0.00 | 25 | 1017.7 |
| 20260503193611 | 57 | 358 | 2.0 | 8.0 | 0.00 | 0.00 | 0.00 | 27 | 1017.7 |
| 20260503192711 | 58 | 6 | 4.0 | 9.0 | 0.00 | 0.00 | 0.00 | 23 | 1017.7 |
| 20260503191832 | 60 | 295 | 2.0 | 7.0 | 0.00 | 0.00 | 0.00 | 27 | 1018.5 |
| 20260503190911 | 60 | 267 | 3.0 | 8.0 | 0.00 | 0.00 | 0.00 | 24 | 1018.5 |
| 20260503190032 | 59 | 10 | 3.0 | 11.0 | 0.00 | 0.00 | 0.00 | 26 | 1018.5 |
| 20260503185416 | 60 | 16 | 4.0 | 11.0 | 0.00 | 0.00 | 0.00 | 20 | 1018.5 |
| 20260503184511 | 60 | 165 | 3.0 | 8.0 | 0.00 | 0.00 | 0.00 | 25 | 1018.5 |
| 20260503183611 | 59 | 219 | 2.0 | 9.0 | 0.00 | 0.00 | 0.00 | 24 | 1018.5 |
| 20260503182711 | 57 | 283 | 2.0 | 9.0 | 0.00 | 0.00 | 0.00 | 22 | 1018.5 |
| 20260503181811 | 59 | 352 | 3.0 | 13.0 | 0.00 | 0.00 | 0.00 | 22 | 1019.0 |
| 20260503180911 | 58 | 255 | 2.0 | 7.0 | 0.00 | 0.00 | 0.00 | 25 | 1019.0 |
| 20260503180032 | 57 | 244 | 3.0 | 12.0 | 0.00 | 0.00 | 0.00 | 22 | 1019.0 |
| 20260503175433 | 59 | 282 | 3.0 | 12.0 | 0.00 | 0.00 | 0.00 | 21 | 1019.0 |
| 20260503174532 | 59 | 353 | 2.0 | 8.0 | 0.00 | 0.00 | 0.00 | 27 | 1019.0 |
| 20260503173611 | 58 | 10 | 2.0 | 8.0 | 0.00 | 0.00 | 0.00 | 27 | 1019.0 |
| 20260503172711 | 59 | 314 | 3.0 | 9.0 | 0.00 | 0.00 | 0.00 | 29 | 1019.0 |
| 20260503171811 | 56 | 290 | 3.0 | 9.0 | 0.00 | 0.00 | 0.00 | 27 | 1019.9 |
| 20260503170911 | 54 | 25 | 2.0 | 7.0 | 0.00 | 0.00 | 0.00 | 31 | 1019.9 |